Location: Sinnemahoning State Park
(41.4031°N, 78.0230°W)
Time: 11:00:48
(UTC-04:00)

Daily predictions for brighter satellites

Satellite Brightness Start Highest point End
(mag) Time Altitude Azimuth Time Altitude Azimuth Time Altitude Azimuth
Cosmos 2058 4.4 21:17:12 10° SE 21:20:07 19° E 21:23:02 10° NE
Cosmos 1151 Rocket 3.4 21:18:39 10° N 21:22:51 49° E 21:27:03 10° SSE
Cosmos 2292 4.4 21:21:32 10° N 21:24:32 78° W 21:27:51 10° S
Cosmos 2266 Rocket 4.1 21:19:10 10° S 21:25:19 59° E 21:31:23 10° NNE
Cosmos 371 Rocket 4.5 21:22:22 10° NNW 21:26:53 41° WSW 21:31:23 10° S
Cosmos 1674 2.8 21:23:35 10° S 21:27:19 55° E 21:31:08 10° NNE
Cosmos 405 3.2 21:23:50 10° N 21:27:24 55° ENE 21:30:57 10° SSE
Cosmos 1553 Rocket 4.3 21:22:37 10° N 21:29:00 74° W 21:35:17 10° S
ALOS 3.8 21:25:05 10° SSW 21:29:22 36° W 21:33:42 10° NNW
H-2A R/B 4.2 21:29:21 10° E 21:31:57 14° ENE 21:34:33 10° NNE
Cosmos 1680 Rocket 3.7 21:28:31 10° NNW 21:33:43 61° ENE 21:38:55 10° SSE
H-2A R/B 4.4 21:33:49 10° S 21:37:00 17° SE 21:44:02 10° E
Cosmos 923 Rocket 4.0 21:33:04 10° NNW 21:38:19 86° ENE 21:43:31 10° SSE
Cosmos 1300 4.0 21:36:42 10° NNE 21:39:56 25° ENE 21:42:49 12° SE
Cosmos 1833 4.3 21:34:52 10° SSW 21:40:36 89° WNW 21:46:19 10° NNE
USA 229 DEB 4.1 21:34:07 10° SW 21:41:02 73° NW 21:48:03 10° NNE
USA 229 4.1 21:34:12 10° SW 21:41:08 74° NW 21:48:10 10° NNE
YAOGAN 6 3.7 21:38:16 11° SE 21:41:19 29° ENE 21:44:30 10° N
Tiangong 1 2.0 21:38:47 10° SSW 21:41:28 27° SSE 21:44:09 10° E
SPOT 1/Viking Rocket 4.4 21:39:09 10° SE 21:43:47 36° ENE 21:48:27 10° N
Cosmos 2333 Rocket 4.0 21:40:11 10° N 21:44:19 20° NE 21:48:27 10° E
AVUM R/B 4.5 21:42:36 10° SW 21:44:46 33° WNW 21:47:08 10° N
Cosmos 1898 Rocket 4.4 21:42:37 10° SSE 21:46:58 28° E 21:51:22 10° NE
Cosmos 1939 Rocket 3.2 21:46:37 10° S 21:50:31 65° W 21:54:24 10° NNW
H-2A R/B 2.5 21:46:25 10° S 21:50:54 65° WSW 21:55:25 10° NNW
Cosmos 1707 Rocket 4.2 21:48:20 10° N 21:52:26 38° ENE 21:55:47 14° SE
Cosmos 1437 Rocket 3.7 21:49:07 10° NNW 21:52:47 45° W 21:56:28 10° SSW
Cosmos 1666 Rocket 4.3 21:52:50 12° SSE 21:56:28 35° E 22:00:30 10° NNE
COSMOS 2428 3.0 21:51:02 10° NNW 21:56:38 55° ENE 22:01:17 15° SE
MetOp-A 4.2 21:51:56 10° SSE 21:57:09 70° ENE 22:02:29 10° N
SPOT 5 2.8 21:53:26 10° SSE 21:57:59 87° ENE 22:02:51 10° NNW
Cosmos 2297 Rocket 4.0 21:57:44 11° ESE 21:58:56 11° E 22:00:42 10° ENE
NOSS 3-1 (A) 3.7 21:55:08 10° S 22:00:37 44° ESE 22:06:38 10° NE
BREEZE-M DEB (TANK) 4.3 22:00:06 10° NNW 22:01:29 15° NNE 22:03:00 10° ENE
Cosmos 1455 4.5 22:01:03 10° NE 22:02:17 11° ENE 22:03:30 10° E
PSLV R/B 3.1 22:00:36 14° S 22:03:11 83° WSW 22:06:15 10° NNW
ARGOS 3.6 21:59:31 14° SE 22:03:50 47° ENE 22:08:58 10° N
Cosmos 2219 Rocket 3.2 21:59:46 10° N 22:04:48 33° ENE 22:08:52 14° ESE
Cosmos 304 Rocket 4.1 22:00:08 10° NNW 22:04:55 64° WSW 22:09:26 11° S
Nadezhda 2 Rocket 4.4 22:03:44 10° S 22:09:52 86° E 22:16:01 10° N
Cosmos 2237 4.2 22:12:29 10° NNW 22:18:16 86° ENE 22:22:30 19° SSE
Cosmos 1437 4.2 22:16:44 10° SSW 22:19:49 38° WNW 22:22:56 10° N
Cosmos 1328 4.5 22:16:55 10° SSW 22:20:47 55° W 22:24:41 10° N
Cosmos 1726 2.2 22:17:32 10° N 22:21:18 62° E 22:23:25 24° SSE
ATLAS 2AS CENTAUR R/B 3.7 22:18:20 15° SSE 22:23:11 30° ESE 22:29:46 10° NE
Envisat 4.1 22:20:22 10° SSW 22:25:07 41° W 22:29:55 10° NNW
CZ-4C R/B 3.9 22:24:04 25° ESE 22:25:27 35° ENE 22:28:39 10° N
USA 32 4.3 22:20:50 10° N 22:25:59 52° E 22:29:09 22° SSE
Cosmos 292 Rocket 4.1 22:23:29 10° N 22:28:10 53° ENE 22:30:47 24° SE
Cosmos 2219 3.6 22:23:39 10° SSW 22:29:22 68° WNW 22:35:07 10° NNE
Landsat 7 4.3 22:27:03 23° SE 22:29:43 47° ENE 22:34:17 10° N
ERBS 4.1 22:32:03 19° E 22:32:03 19° E 22:33:29 10° ENE
Delta 2 Rocket 3.7 22:28:22 10° WSW 22:31:31 30° S 22:31:53 30° S
Cosmos 2237 Rocket 3.0 22:31:05 10° N 22:36:25 39° ENE 22:39:42 21° ESE
Cosmos 2333 4.2 22:30:52 10° NNW 22:36:38 90° NNE 22:40:15 24° SSE
ATLAS 3B R/B 4.0 22:32:19 10° NNW 22:38:30 31° NE 22:44:01 11° E
Cosmos 1271 Rocket 2.7 22:34:41 10° N 22:38:31 64° E 22:40:05 33° SSE
SL-23 DEB 4.4 22:34:48 10° WNW 22:39:16 43° SW 22:40:32 29° S
Meteor 2-10 4.4 22:34:10 10° N 22:39:50 60° ENE 22:43:05 26° SSE
Cosmos 2082 4.2 22:38:00 23° SSE 22:40:51 39° ESE 22:46:08 10° NE
Cosmos 1703 3.2 22:41:15 30° SSE 22:42:59 64° E 22:46:52 10° NNE
SL-14 R/B 3.6 22:40:06 15° SSW 22:43:15 66° W 22:47:15 10° N
Meteor 1-4 Rocket 2.5 22:40:17 10° N 22:44:04 83° E 22:45:29 36° SSE
Cosmos 2242 Rocket 3.5 22:39:55 10° N 22:44:25 84° E 22:46:44 28° S
Cosmos 1346 4.1 22:45:04 31° E 22:45:04 31° E 22:47:34 10° NNE
Terra 2.3 22:43:25 28° SE 22:45:36 47° ENE 22:50:10 10° N
Cosmos 1937 Rocket 3.4 22:41:24 16° S 22:45:39 70° ESE 22:50:51 10° NNE
NOSS 3-1 (C) 3.7 22:41:19 10° SW 22:47:10 70° NW 22:53:43 10° NNE
Cosmos 2298 Rocket 4.3 22:42:02 10° SSW 22:47:20 70° WNW 22:52:40 10° NNE
Cosmos 2360 Rocket 3.8 22:42:53 10° NW 22:47:35 27° WSW 22:52:15 10° SSW
Iridium 2 3.7 22:47:14 36° SSE 22:48:37 66° E 22:52:26 10° N
NOAA 11 4.3 22:47:19 22° S 22:50:54 72° WSW 22:56:23 10° NNW
Lacrosse 4 Rocket 3.6 22:47:59 10° N 22:51:00 18° NE 22:53:24 12° E
Cosmos 1862 Rocket 4.1 22:47:03 10° N 22:51:13 43° ENE 22:52:33 33° ESE
Sich 1 3.5 22:48:46 15° SSW 22:52:20 62° W 22:56:43 10° N
CARTOSAT-1 3.8 22:51:07 34° SE 22:52:45 57° ENE 22:57:00 10° N
USA 245 3.9 22:53:37 23° WSW 22:54:08 25° W 22:56:09 10° NW
FALCON 9 R/B 4.1 22:26:13 10° WSW 22:54:39 63° S 23:00:30 18° ESE
Cosmos 1633 Rocket 3.5 22:52:40 16° SSW 22:56:02 60° W 23:00:22 10° N
Cosmos 990 Rocket 3.9 22:53:45 26° S 22:56:33 62° ESE 23:01:38 10° NNE
DELTA 2 DEB (DPAF) 4.2 22:58:33 32° S 23:00:35 78° WSW 23:05:06 10° NNW
Cosmos 1626 2.3 23:01:03 47° SE 23:01:36 53° E 23:05:17 10° NNE
OAO 2 Rocket 3.9 22:57:36 10° WSW 23:02:29 38° S 23:03:20 36° SSE
COSMOS 2455 3.8 23:01:21 10° NNW 23:06:56 38° NE 23:10:13 22° ESE
SL-08 RB Rocket 4.4 23:06:50 25° SSW 23:09:04 47° W 23:13:25 10° NNW
H-2A R/B 2.1 23:08:02 33° SSE 23:10:33 87° WSW 23:16:02 10° NNW
Cosmos 2227 Rocket 2.1 23:11:30 24° SSW 23:15:02 78° ESE 23:20:44 10° NNE
Tiangong 1 1.5 23:14:46 10° W 23:17:12 52° W 23:17:12 52° W
Cosmos 1933 4.2 23:14:50 10° N 23:18:36 35° ENE 23:18:58 34° E
Cosmos 1241 Rocket 4.4 23:22:15 11° SSW 23:28:15 85° WNW 23:34:33 10° NNE
Cosmos 2333 Rocket 2.3 23:23:26 10° NNW 23:29:10 71° WSW 23:31:18 40° S
Cosmos 192 4.2 23:24:36 10° NNW 23:29:33 85° ENE 23:30:50 50° SSE
SL-16 R/B 2.8 23:24:24 10° NNW 23:29:54 47° ENE 23:32:01 32° ESE
Cosmos 389 Rocket 4.4 23:27:17 10° NNE 23:29:47 20° ENE 23:29:47 20° ENE
IGS 5A 3.7 23:29:10 48° SSW 23:30:06 63° W 23:34:16 10° NNW
SeaSat 1 3.6 23:29:32 24° E 23:31:29 33° NE 23:35:52 10° N
Cosmos 1125 Rocket 3.6 23:33:30 47° SSE 23:34:41 58° ESE 23:39:54 10° NNE
CZ-4B R/B 4.1 23:36:58 11° ENE 23:36:59 11° ENE 23:37:44 10° NE
Cosmos 1455 2.8 23:34:37 10° NNW 23:38:18 48° W 23:38:49 44° WSW
Nadezhda 1 Rocket 4.4 23:33:22 10° NNW 23:39:17 55° W 23:42:17 29° SSW
SAR-Lupe-2 4.3 23:40:40 43° WSW 23:40:51 43° W 23:44:18 10° NNW
Cosmos 2297 Rocket 2.1 23:39:29 34° SSW 23:42:05 90° ESE 23:47:47 10° NNE
Okean 1-7 3.7 23:41:16 10° N 23:45:17 39° ENE 23:45:28 39° E
NOSS 2-3 (D) 4.5 23:46:30 40° ESE 23:46:30 40° ESE 23:51:17 10° NE
Cosmos 2219 Rocket 3.2 23:43:41 10° NW 23:48:44 36° WSW 23:50:35 28° SW
Cosmos 1703 Rocket 3.4 23:47:53 10° N 23:52:16 80° E 23:52:36 73° SE
Cosmos 1869 4.3 23:51:58 10° NNW 23:55:45 38° W 23:56:15 36° WSW
